Content
SEND FEEDBACK

Daily
Averages
Monthly
Summary
India

AMRITSAR, INDIA


Home > Asia > India
Elevation: 752 feet     Latitude: 31 42N     Longitude: 074 47E

WEATHER
 
SELECT A DAY
Number of Records: 132,189;   Date Range: 7/1/96 - 12/19/14
 
SHARE

PRINT THIS DATA

[ ← Previous Day ]
WEATHER ALMANAC - DECEMBER 17, 2013
[ Next Day → ]
[ °C ]   °F
Weather ElementAverageHighLow
Temperature50.8 °F55.4 °F (1:30 pm) (12:30 am)
Dewpoint50.7 °F55.4 °F (1:30 pm) (7:00 pm)
Humidity99.8 %100 % (1:00 am)94 % (3:00 am)
Barometer29.97 in30.04 in (10:00 am)29.92 in (3:00 pm)

Weather ElementAverage
Weather ElementTotal
Precipitation---
Heating Degree Days37.3 (Base 65)
Averaged from 52 records on December 17, 2013
WEATHER CONDITIONS BREAKOUT
WIND DIRECTION BREAKOUT
WEATHER BY HOUR - DECEMBER 17, 2013
[ °C ]   °F
Local TimeTemperatureDewpointHumidityBarometerVisibilityWind DirectionWind SpeedGust SpeedPrecipitationEventsConditions
12:30 AM0.0 °F0.0 °F30.01 inCalmFogFog
1:00 AM48.2 °F48.2 °F100 %30.01 inCalmFogFog
1:30 AM48.2 °F48.2 °F100 %30.01 inCalmFogFog
2:00 AM48.2 °F48.2 °F100 %30.01 inCalmFogFog
2:30 AM49.0 °F49.0 °F100 %30.03 in0.0 miCalmFogHeavy Fog
2:30 AM48.2 °F48.2 °F100 %30.01 inCalmFogFog
3:00 AM50.0 °F48.2 °F94 %29.98 inCalmFogFog
3:30 AM48.2 °F48.2 °F100 %29.98 inCalmFogFog
4:00 AM48.2 °F48.2 °F100 %29.98 inCalmFogFog
4:30 AM48.2 °F48.2 °F100 %29.98 inCalmFogFog
5:00 AM48.2 °F48.2 °F100 %29.95 inCalmFogFog
5:30 AM48.0 °F48.0 °F100 %29.98 in0.0 miCalmFogHeavy Fog
5:30 AM48.2 °F48.2 °F100 %29.95 inCalmFogFog
6:00 AM48.2 °F48.2 °F100 %29.98 inCalmFogFog
6:30 AM48.2 °F48.2 °F100 %29.98 inCalmFogFog
7:00 AM48.2 °F48.2 °F100 %29.98 inCalmFogFog
7:30 AM48.2 °F48.2 °F100 %29.98 inCalmFogFog
8:00 AM48.2 °F48.2 °F100 %30.01 inCalmFogFog
8:30 AM49.0 °F49.0 °F100 %30.01 in0.0 miCalmFogHeavy Fog
8:30 AM48.2 °F48.2 °F100 %30.01 inCalmFogFog
10:00 AM50.0 °F50.0 °F100 %30.04 inCalmFogFog
10:30 AM50.0 °F50.0 °F100 %30.04 inCalmFogFog
11:00 AM51.8 °F51.8 °F100 %30.04 inCalmFogFog
11:30 AM53.0 °F53.0 °F98 %30.04 in0.0 miCalmFogHeavy Fog
12:00 PM53.6 °F53.6 °F100 %30.01 inCalmFogFog
12:30 PM53.6 °F53.6 °F100 %30.01 inCalmFogFog
1:00 PM53.6 °F53.6 °F100 %29.98 inCalmFogFog
1:30 PM55.4 °F55.4 °F100 %29.98 inCalmFogFog
2:00 PM55.4 °F55.4 °F100 %29.95 inCalmFogFog
2:30 PM55.0 °F55.0 °F100 %29.95 in0.0 miCalmFogHeavy Fog
2:30 PM55.4 °F55.4 °F100 %29.95 inCalmFogFog
3:00 PM55.4 °F55.4 °F100 %29.92 inCalmFogFog
3:30 PM55.4 °F55.4 °F100 %29.92 in0.1 miCalmFogFog
4:00 PM55.4 °F55.4 °F100 %29.92 in0.1 miCalmFogFog
4:30 PM55.4 °F55.4 °F100 %29.92 in0.0 miCalmFogFog
5:00 PM55.4 °F55.4 °F100 %29.92 in0.0 miVariable1.2 mphFogFog
5:30 PM54.0 °F54.0 °F100 %29.92 in0.0 miCalmFogHeavy Fog
5:30 PM55.4 °F55.4 °F100 %29.92 inCalmFogFog
6:00 PM53.6 °F53.6 °F100 %29.92 inCalmFogFog
6:30 PM53.6 °F53.6 °F100 %29.92 inCalmFogFog
7:00 PM53.6 °F53.6 °F100 %29.95 inCalmFogFog
7:30 PM53.6 °F53.6 °F100 %29.95 inCalmFogFog
8:00 PM53.6 °F53.6 °F100 %29.95 inCalmFogFog
8:30 PM53.0 °F53.0 °F99 %29.96 in0.0 miCalmFogHeavy Fog
8:30 PM53.6 °F53.6 °F100 %29.95 inCalmFogFog
9:00 PM53.6 °F53.6 °F100 %29.95 inCalmFogFog
9:30 PM53.6 °F53.6 °F100 %29.95 inCalmFogFog
10:00 PM53.6 °F53.6 °F100 %29.95 inCalmFogFog
10:30 PM53.6 °F53.6 °F100 %29.95 inCalmFogFog
11:00 PM53.6 °F53.6 °F100 %29.95 inCalmFogFog
11:30 PM53.0 °F53.0 °F98 %29.96 in0.0 miCalmFogHeavy Fog
11:30 PM51.8 °F51.8 °F100 %29.95 inCalmFogFog
Hourly data recorded from VIAR, located miles away from Amritsar, India







STORIES FROM OUR PARTNERS